This is the latest recevied weather packets stored in our database for station/object N4HAC. If no packets are shown the sender has not sent any weather packets the latest 10 day(s).
| Time | Temp. | Humidity | Pressure | Rain* | Wind** | Luminosity | Snow |
|---|---|---|---|---|---|---|---|
| 1778029496 | 21.67° C | 43% | 1004.6 hPa | 0 mm | - | 0 W/m² | - |
| 1778029191 | 21.67° C | 41% | 1004.7 hPa | 0 mm | - | 0 W/m² | - |
| 1778028889 | 21.67° C | 41% | 1004.5 hPa | 0 mm | - | 0 W/m² | - |
| 1778028584 | 22.22° C | 40% | 1004.5 hPa | 0 mm | - | 0 W/m² | - |
| 1778028283 | 22.22° C | 39% | 1004.4 hPa | 0 mm | - | 0 W/m² | - |
| 1778027978 | 22.78° C | 37% | 1004.4 hPa | 0 mm | - | 0 W/m² | - |
| 1778027675 | 22.78° C | 37% | 1004.5 hPa | 0 mm | - | 0 W/m² | - |
| 1778027371 | 23.33° C | 36% | 1004.3 hPa | 0 mm | - | 0 W/m² | - |
| 1778027067 | 23.33° C | 35% | 1004.3 hPa | 0 mm | - | 0 W/m² | - |
| 1778026763 | 23.33° C | 35% | 1004.1 hPa | 0 mm | - | 1 W/m² | - |
| 1778026460 | 23.33° C | 34% | 1004.2 hPa | 0 mm | - | 1 W/m² | - |
| 1778026158 | 23.89° C | 34% | 1004.1 hPa | 0 mm | - | 2 W/m² | - |
| 1778025855 | 23.89° C | 34% | 1004 hPa | 0 mm | - | 4 W/m² | - |
| 1778025552 | 24.44° C | 34% | 1003.7 hPa | 0 mm | - | 7 W/m² | - |
| 1778025250 | 24.44° C | 33% | 1003.8 hPa | 0 mm | - | 10 W/m² | - |
| 1778024947 | 24.44° C | 33% | 1003.9 hPa | 0 mm | - | 16 W/m² | - |
| 1778024644 | 24.44° C | 33% | 1003.9 hPa | 0 mm | - | 23 W/m² | - |
| 1778024340 | 24.44° C | 33% | 1003.7 hPa | 0 mm | - | 28 W/m² | - |
| 1778024039 | 24.44° C | 32% | 1003.9 hPa | 0 mm | - | 27 W/m² | - |
| 1778023735 | 25° C | 32% | 1003.9 hPa | 0 mm | - | 20 W/m² | - |
| 1778023434 | 25° C | 31% | 1003.7 hPa | 0 mm | - | 18 W/m² | - |
| 1778023130 | 25° C | 32% | 1003.7 hPa | 0 mm | - | 21 W/m² | - |
| 1778022827 | 25° C | 32% | 1003.9 hPa | 0 mm | - | 24 W/m² | - |
| 1778022526 | 25.56° C | 32% | 1003.8 hPa | 0 mm | - | 34 W/m² | - |
| 1778022222 | 25.56° C | 31% | 1003.8 hPa | 0 mm | - | 52 W/m² | - |
* Rain latest hour (hover to see other rain measurements)
** Current wind speed in m/s (hover to see current wind gust speed)